time_stamp(utc),avg(mph),gust(mph),direction(deg),12m_air_temp(f),sonic_u(cm/s),sonic_v(cm/s),sonic_w(cm/s),pressure,2m_air_temp(f),pyranometer(W/m^2)
"2020-03-07 00:02:45+00",14.9,16.9,,36.4,-21,646,20,1009.19,35.8,0
"2020-03-07 00:07:45+00",15.3,17.3,,36.5,-95,656,19,1009.1,35.9,0
"2020-03-07 00:12:45+00",14.2,16.2,,36.7,-118,639,10,1009.16,36,0
"2020-03-07 00:17:45+00",11.7,12.7,,36.9,-143,476,36,1009.05,36.2,0
"2020-03-07 00:22:45+00",13.5,16.5,,37,-74,551,45,1009.01,36.2,0
"2020-03-07 00:27:45+00",13.2,17.2,,37.2,50,347,139,1009.03,36.2,0
"2020-03-07 00:32:45+00",13.4,14.4,,37.4,319,-95,392,1009.11,36.3,0
"2020-03-07 00:37:45+00",12.5,15.5,,37.4,452,-420,548,1009.12,36.3,0
"2020-03-07 00:42:45+00",14.5,17.5,,37.2,103,334,183,1009.04,36.3,0
"2020-03-07 00:47:45+00",14.6,17.6,,37.2,-45,633,20,1009.04,36.3,0
"2020-03-07 00:52:45+00",13.5,14.5,,37.1,5,568,36,1009.19,36.3,0
"2020-03-07 00:57:45+00",14.6,18.6,,37.2,-17,655,3,1009.22,36.3,0
"2020-03-07 01:02:45+00",13.1,14.1,,37.1,-141,565,12,1009.32,36.4,0
"2020-03-07 01:07:45+00",12.9,14.9,,36.9,-157,534,34,1009.3,36.3,0
"2020-03-07 01:12:45+00",13.2,16.2,,36.7,-132,539,42,1009.4,36.3,0
"2020-03-07 01:17:45+00",12.6,14.6,,36.7,-176,523,26,1009.45,36.3,0
"2020-03-07 01:22:45+00",14.5,16.5,,36.7,-215,600,17,1009.62,36.3,0
"2020-03-07 01:27:45+00",13.9,15.9,,36.8,-268,593,11,1009.67,36.4,0
"2020-03-07 01:32:45+00",13.5,15.5,,36.8,-359,546,14,1009.78,36.4,0
"2020-03-07 01:37:45+00",11.6,13.6,,36.9,-212,446,63,1009.89,36.5,0
"2020-03-07 01:42:45+00",14.5,16.5,,36.9,-184,583,26,1009.96,36.4,0
"2020-03-07 01:47:45+00",11.1,13.1,,36.9,-219,466,14,1010.11,36.5,0
"2020-03-07 01:52:45+00",11.5,12.5,,36.7,-57,454,36,1010.25,36.5,0
"2020-03-07 01:57:45+00",10.9,12.9,,36.8,-128,480,-3,1010.33,36.5,0
"2020-03-07 02:27:45+00",11.5,13.5,,37,-229,448,43,1010.55,36.6,0
"2020-03-07 02:32:45+00",14.3,15.3,,36.9,-269,666,-8,1010.62,36.6,0
"2020-03-07 02:37:45+00",15.8,17.8,,36.9,-576,1146,-238,1010.58,36.5,0
"2020-03-07 02:47:45+00",12.4,15.4,,36.9,372,-516,605,1010.74,36.5,0
"2020-03-07 02:52:45+00",13.6,14.6,,36.8,9,99,280,1010.7,36.5,0
"2020-03-07 02:57:45+00",15.7,16.7,,36.7,-682,1354,-371,1010.84,36.4,0
"2020-03-07 03:02:45+00",14.7,16.7,,36.7,-52,199,257,1010.84,36.4,0
"2020-03-07 03:07:45+00",14.2,17.2,,36.7,-671,1321,-318,1010.86,36.4,0
"2020-03-07 03:12:45+00",13.3,15.3,,36.7,-1758,3205,-1402,1010.95,36.3,0
"2020-03-07 03:22:45+00",14.1,16.1,,36.4,1730,-2572,1755,1011.13,36.2,0
"2020-03-07 03:27:45+00",12.6,13.6,,36.4,-167,816,-206,1011.13,36.1,0
"2020-03-07 03:32:45+00",11.7,13.7,,36.4,-2013,4057,-2010,1011.23,36.2,0
"2020-03-07 03:37:45+00",12.8,13.8,,36.5,32,1435,-814,1011.24,36.2,0
"2020-03-07 03:42:45+00",14.3,16.3,,36.6,483,3655,-2642,1011.36,36.2,0
"2020-03-07 03:47:45+00",13.8,15.8,,36.6,1171,926,-829,1011.36,36.1,0
"2020-03-07 03:52:45+00",13.8,15.8,,36.6,313,2033,-1292,1011.43,36.1,0
"2020-03-07 04:02:45+00",12.3,14.3,,36.6,2456,-583,-343,1011.46,36.1,0
"2020-03-07 04:17:45+00",13.4,15.4,,36.5,671,565,-359,1011.52,36,0
"2020-03-07 04:22:45+00",11.9,13.9,,36.6,-317,1944,-1016,1011.68,36,0
"2020-03-07 04:32:45+00",9.9,11.9,,36.7,-140,760,-282,1011.7,36,0
"2020-03-07 04:37:45+00",10.4,12.4,,36.7,201,421,-139,1011.74,36.1,0
"2020-03-07 04:42:45+00",11.1,14.1,,36.7,-216,861,-295,1011.66,36.1,0
"2020-03-07 05:42:45+00",14.6,17.6,,36.6,-2168,3641,-1624,1012.52,36.2,0
"2020-03-07 05:47:45+00",15.5,17.5,,36.6,-978,1334,-370,1012.58,36.2,0
"2020-03-07 05:52:45+00",14.1,17.1,,36.6,-485,555,93,1012.63,36.3,0
"2020-03-07 05:57:45+00",13.2,15.2,,36.6,-668,513,220,1012.68,36.2,0
"2020-03-07 06:02:45+00",13.5,14.5,,36.7,-1462,476,593,1012.72,36.3,0
"2020-03-07 06:07:45+00",13.7,14.7,,36.6,-625,498,200,1012.84,36.3,0
"2020-03-07 06:12:45+00",11.3,12.3,,36.6,-1078,410,438,1012.89,36.3,0
"2020-03-07 06:17:45+00",12.6,13.6,,36.5,-1005,885,27,1012.96,36.3,0
"2020-03-07 06:22:45+00",11.1,14.1,,36.5,-672,437,223,1013.02,36.2,0
"2020-03-07 06:27:45+00",13.2,16.2,,36.4,-434,493,133,1013.06,36.2,0
"2020-03-07 06:32:45+00",15.5,16.5,,36.2,-462,562,125,1013.19,36.1,0
"2020-03-07 06:37:45+00",15.6,16.6,,35.8,-570,870,-125,1013.31,35.8,0
"2020-03-07 06:42:45+00",16.0,19.0,,35.5,-349,589,67,1013.31,35.5,0
"2020-03-07 06:47:45+00",12.4,15.4,,35.5,-297,463,75,1013.41,35.4,0
"2020-03-07 06:52:45+00",15.8,17.8,,35.4,-781,1334,-335,1013.39,35.3,0
"2020-03-07 06:57:45+00",13.4,14.4,,35.3,-352,482,70,1013.46,35.3,0
"2020-03-07 07:02:45+00",12.5,14.5,,35.3,-340,451,92,1013.43,35.2,0
"2020-03-07 07:07:45+00",12.0,13.0,,35.3,-355,443,91,1013.49,35.1,0
"2020-03-07 07:12:45+00",12.1,14.1,,35.4,-267,462,61,1013.55,35.1,0
"2020-03-07 07:17:45+00",14.0,17.0,,35.5,-292,548,69,1013.57,35.2,0
"2020-03-07 07:22:45+00",13.3,16.3,,35.6,-226,532,40,1013.6,35.2,0
"2020-03-07 07:27:45+00",14.7,16.7,,35.6,-116,486,110,1013.66,35.2,0
"2020-03-07 07:32:45+00",15.2,17.2,,35.7,-108,385,168,1013.72,35.2,0
"2020-03-07 07:37:45+00",13.1,15.1,,35.8,-112,400,120,1013.82,35.3,0
"2020-03-07 07:42:45+00",14.3,16.3,,35.8,-35,265,230,1013.77,35.4,0
"2020-03-07 07:47:45+00",13.6,17.6,,35.9,-218,491,26,1013.85,35.4,0
"2020-03-07 07:52:45+00",12.6,14.6,,36,-267,494,57,1013.82,35.5,49.4
"2020-03-07 08:27:45+00",16.7,19.7,,36.4,-2158,3626,-1585,1014.13,36,0
"2020-03-07 08:32:45+00",20.1,23.1,,36.5,-705,1017,-140,1014.12,36,0
"2020-03-07 08:37:45+00",17.4,19.4,,36.6,-378,672,66,1014.26,36.2,0
"2020-03-07 08:42:45+00",19.7,24.7,,36.7,-434,764,54,1014.35,36.3,0
"2020-03-07 08:47:45+00",22.1,25.1,,36.8,-385,868,65,1014.36,36.4,0
"2020-03-07 08:52:45+00",22.7,25.7,,36.8,-366,897,74,1014.48,36.4,0
"2020-03-07 08:57:45+00",21.4,25.4,,36.9,-286,882,44,1014.6,36.4,0
"2020-03-07 09:02:45+00",22.0,25.0,,36.7,-452,846,65,1014.62,36.4,0
"2020-03-07 09:07:45+00",16.4,19.4,,36.7,-403,603,58,1014.81,36.5,0
"2020-03-07 09:12:45+00",12.6,14.6,,36.6,-345,476,52,1014.89,36.4,0
"2020-03-07 09:17:45+00",15.3,17.3,,36.5,-392,539,43,1014.99,36.4,0
"2020-03-07 09:22:45+00",13.2,14.2,,36.6,-391,585,-16,1015.06,36.5,0
"2020-03-07 09:27:45+00",14.5,15.5,,36.8,-785,1184,-374,1015.11,36.6,0
"2020-03-07 09:32:45+00",14.9,16.9,,36.9,-928,1401,-467,1015.17,36.8,0
"2020-03-07 09:37:45+00",15.6,18.6,,36.8,-534,616,-7,1015.25,36.8,0
"2020-03-07 09:42:45+00",17.7,19.7,,36.9,-924,1174,-336,1015.38,37,0
"2020-03-07 09:47:45+00",17.4,19.4,,36.9,-720,943,-157,1015.45,37,0
"2020-03-07 09:52:45+00",18.9,20.9,,37,-618,741,-5,1015.52,37.1,0
"2020-03-07 09:57:45+00",17.4,19.4,,37,-524,611,48,1015.74,37.1,0
"2020-03-07 10:02:45+00",17.3,19.3,,37,-466,592,64,1015.85,37.2,0
"2020-03-07 10:07:45+00",19.2,21.2,,37,-541,646,73,1015.99,37.2,0
"2020-03-07 10:12:45+00",18.8,20.8,,37,-517,632,65,1016.04,37.3,0
"2020-03-07 10:17:45+00",17.6,18.6,,37.2,-528,570,71,1016.09,37.4,0
"2020-03-07 10:22:45+00",17.4,19.4,,37.2,-522,564,74,1016.16,37.4,0
"2020-03-07 10:27:45+00",17.9,19.9,,37.5,-449,637,68,1016.22,37.6,0
"2020-03-07 10:32:45+00",16.0,18.0,,37.4,-432,556,71,1016.36,37.6,0
"2020-03-07 10:37:45+00",17.1,19.1,,37.4,-418,623,79,1016.42,37.6,0
"2020-03-07 10:42:45+00",18.9,22.9,,37.5,-1403,1990,-723,1016.46,37.6,0
"2020-03-07 10:47:45+00",19.0,20.0,,37.6,-1102,1646,-522,1016.55,37.7,0
"2020-03-07 10:52:45+00",18.2,20.2,,37.4,-847,1271,-332,1016.61,37.6,0
"2020-03-07 10:57:45+00",18.0,19.0,,37.4,-757,1083,-201,1016.74,37.6,0
"2020-03-07 11:02:45+00",19.7,21.7,,37.5,-605,822,3,1016.82,37.6,0
"2020-03-07 11:07:45+00",18.2,20.2,,37.6,-470,699,41,1016.88,37.7,0
"2020-03-07 11:12:45+00",17.6,19.6,,37.6,-491,595,76,1016.9,37.7,0
"2020-03-07 11:17:45+00",18.0,20.0,,37.6,-514,598,67,1017.04,37.7,0
"2020-03-07 11:22:45+00",17.1,18.1,,37.5,-502,570,91,1017.1,37.6,0
"2020-03-07 11:27:45+00",18.0,20.0,,37.4,-523,591,66,1017.21,37.6,0
"2020-03-07 11:32:45+00",17.7,22.7,,37.5,-512,579,63,1017.27,37.6,0
"2020-03-07 11:37:45+00",21.3,23.3,,37.5,-561,751,86,1017.3,37.6,0
"2020-03-07 11:42:45+00",20.2,23.2,,37.7,-573,689,94,1017.3,37.8,0
"2020-03-07 11:47:45+00",22.2,25.2,,37.8,-610,765,91,1017.43,37.8,0
"2020-03-07 11:52:45+00",21.2,23.2,,37.8,-606,708,96,1017.54,37.9,0
"2020-03-07 11:57:45+00",20.6,23.6,,37.9,-574,704,95,1017.61,38,0
"2020-03-07 12:02:45+00",22.0,25.0,,38,-604,755,95,1017.65,38.1,0.6
"2020-03-07 12:07:45+00",22.7,25.7,,38,-662,763,96,1017.75,38.2,4.3
"2020-03-07 12:12:45+00",24.7,27.7,,37.9,-706,826,83,1017.85,38.1,9.4
"2020-03-07 12:17:45+00",21.5,25.5,,38,-647,710,110,1017.93,38.2,25.9
"2020-03-07 12:22:45+00",25.3,28.3,,37.8,-837,761,97,1018.05,38.2,48
"2020-03-07 12:27:45+00",23.9,26.9,,37.8,-758,741,97,1018.18,38.2,50.1
"2020-03-07 13:07:45+00",24.9,29.9,,36.9,1658,-3357,2504,1019.39,37.3,59.3
"2020-03-07 13:22:45+00",30.2,34.2,,36.5,-1184,1442,-166,1019.71,36.8,19.2
"2020-03-07 13:32:45+00",27.2,32.2,,36.5,-2185,3500,-1358,1019.96,36.7,45.5
"2020-03-07 13:37:45+00",22.5,25.5,,36.5,-2255,3772,-1547,1020.1,36.6,58.3
"2020-03-07 13:52:45+00",22.7,26.7,,36.4,-2345,3905,-1673,1020.26,36.6,50.1
"2020-03-07 13:57:45+00",21.4,24.4,,36.5,-2030,3175,-1309,1020.34,36.7,72.2
"2020-03-07 14:02:45+00",25.9,27.9,,36.4,-1335,2337,-781,1020.36,36.7,100.1
"2020-03-07 14:07:45+00",27.4,31.4,,36.6,-1559,2486,-791,1020.41,37,147.6
"2020-03-07 14:12:45+00",20.3,23.3,,36.9,-596,872,-22,1020.44,37.4,280.2
"2020-03-07 14:17:45+00",25.1,29.1,,36.9,-871,1280,-157,1020.38,37.9,262.7
"2020-03-07 14:22:45+00",21.6,26.6,,37.1,-508,793,89,1020.48,38.1,285.4
"2020-03-07 14:27:45+00",25.3,31.3,,37.2,-598,949,94,1020.58,38.2,331.6
"2020-03-07 14:32:45+00",26.6,28.6,,37.1,-675,967,79,1020.75,38.2,312.4
"2020-03-07 14:37:45+00",26.2,30.2,,36.9,-546,1017,76,1020.91,38.1,94.5
"2020-03-07 14:42:45+00",24.7,27.7,,37.3,-478,978,69,1021.01,38.2,129.8
"2020-03-07 14:47:45+00",24.5,28.5,,37,-565,923,50,1021.09,37.7,69.3
"2020-03-07 14:52:45+00",24.2,28.2,,37.1,-506,939,70,1021.3,37.6,78.5
"2020-03-07 14:57:45+00",20.1,23.1,,37.2,-449,767,65,1021.48,37.5,116.3
"2020-03-07 15:02:45+00",21.7,26.7,,37.4,-466,846,80,1021.48,37.9,156.7
"2020-03-07 15:07:45+00",15.2,21.2,,37.7,-331,595,56,1021.55,38.4,181
"2020-03-07 15:12:45+00",25.1,29.1,,37.8,-611,927,76,1021.53,38.7,311.2
"2020-03-07 15:17:45+00",26.2,30.2,,38,-443,1056,72,1021.63,39,325.6
"2020-03-07 15:22:45+00",21.7,26.7,,38.4,-362,884,76,1021.75,39.4,359.7
"2020-03-07 15:27:45+00",23.8,28.8,,38.3,-589,869,72,1021.73,39.6,453.7
"2020-03-07 15:32:45+00",26.0,31.0,,38.1,-527,1023,58,1021.87,39.5,400.7
"2020-03-07 15:37:45+00",23.4,26.4,,38.4,-469,927,66,1021.82,40,278.3
"2020-03-07 15:42:45+00",24.0,27.0,,38.7,-594,884,65,1021.88,40.4,492.8
"2020-03-07 15:47:45+00",19.6,23.6,,38.7,-355,775,55,1021.97,40.5,394.1
"2020-03-07 15:52:45+00",19.5,22.5,,39.1,-414,755,75,1021.98,40.9,472.1
"2020-03-07 15:57:45+00",25.3,30.3,,38.9,-457,1022,76,1022.11,41,312
"2020-03-07 16:02:45+00",19.6,22.6,,38.8,-420,739,45,1022.12,40.7,462.5
"2020-03-07 16:07:45+00",26.3,29.3,,38.9,-548,1031,60,1022.2,40.9,437.8
"2020-03-07 16:12:45+00",21.9,25.9,,39.7,-531,816,68,1022.27,41.5,468.2
"2020-03-07 16:17:45+00",28.9,34.9,,39.6,-570,1153,73,1022.26,41.4,464.2
"2020-03-07 16:22:45+00",27.9,31.9,,39.7,-373,1172,58,1022.49,41.6,466.5
"2020-03-07 16:27:45+00",24.4,28.4,,39.6,-191,1059,30,1022.58,41.7,465.9
"2020-03-07 16:32:45+00",21.2,26.2,,40.5,-359,848,72,1022.58,42.4,460.9
"2020-03-07 16:37:45+00",23.4,30.4,,40.7,-323,973,51,1022.51,42.8,406.3
"2020-03-07 16:42:45+00",23.4,27.4,,40.4,-356,957,48,1022.63,42.7,469.5
"2020-03-07 16:47:45+00",28.7,33.7,,40.3,-424,1187,64,1022.66,42.6,470.7
"2020-03-07 16:52:45+00",27.7,32.7,,40.7,-360,1170,52,1022.63,42.9,472.6
"2020-03-07 16:57:45+00",26.5,30.5,,41.1,-251,1152,32,1022.74,43.2,472.5
"2020-03-07 17:02:45+00",20.4,26.4,,41,-67,900,51,1022.82,43.3,470.6
"2020-03-07 17:07:45+00",24.7,28.7,,41.4,-551,954,90,1022.81,43.7,468.3
"2020-03-07 17:12:45+00",26.1,30.1,,40.9,-464,1060,68,1022.9,43,468.2
"2020-03-07 17:17:45+00",30.6,34.6,,41.2,-468,1256,58,1022.9,43.3,466.9
"2020-03-07 17:22:45+00",29.0,33.0,,41.2,-191,1255,26,1022.98,43.4,466.1
"2020-03-07 17:27:45+00",27.1,30.1,,41.2,-193,1178,32,1022.92,43.7,463.2
"2020-03-07 17:32:45+00",20.8,25.8,,42.1,-140,894,47,1022.92,44.3,458.6
"2020-03-07 17:37:45+00",25.3,28.3,,42,-323,1065,33,1023.01,44.3,456.2
"2020-03-07 17:42:45+00",23.1,27.1,,41.9,-100,1006,14,1023.09,44.1,455.3
"2020-03-07 17:47:45+00",24.0,27.0,,42.5,-435,959,51,1022.99,44.7,448.9
"2020-03-07 17:52:45+00",26.9,28.9,,42.4,-583,1044,50,1022.93,44.3,445.3
"2020-03-07 17:57:45+00",26.9,32.9,,42.3,-317,1144,37,1023.07,44.2,440.8
"2020-03-07 18:02:45+00",27.1,30.1,,42.2,-543,1080,61,1023.01,44.1,437.6
"2020-03-07 18:07:45+00",20.1,25.1,,43.3,-179,871,37,1023.18,44.6,430
"2020-03-07 18:12:45+00",25.9,30.9,,43.2,-468,1042,65,1023.16,44.9,424
"2020-03-07 18:17:45+00",23.3,26.3,,43.2,-486,925,62,1023.16,45,419.3
"2020-03-07 18:22:45+00",22.2,25.2,,43.6,-118,955,80,1023.26,45.2,411.9
"2020-03-07 18:27:45+00",23.2,26.2,,43.9,-150,1015,23,1023.21,46,406.9
"2020-03-07 18:32:45+00",20.8,23.8,,43.9,-387,832,47,1023.02,46.2,401.3
"2020-03-07 18:37:45+00",24.7,28.7,,44.2,-399,1003,59,1023.1,46.4,393.5
"2020-03-07 18:42:45+00",23.3,28.3,,43.6,-293,987,50,1023.27,45.7,388.5
"2020-03-07 18:47:45+00",23.5,26.5,,43.6,-365,976,57,1023.26,45.6,382.1
"2020-03-07 18:52:45+00",23.5,26.5,,43.5,-522,894,57,1023.28,45.4,375.5
"2020-03-07 18:57:45+00",24.4,30.4,,44.2,0,1062,20,1023.28,46.1,368.7
"2020-03-07 19:02:45+00",18.8,21.8,,44.3,-95,821,30,1023.21,46.8,359.2
"2020-03-07 19:07:45+00",24.8,28.8,,44.8,-429,1013,44,1023.12,47.2,351.7
"2020-03-07 19:12:45+00",27.6,30.6,,44.1,-193,1202,25,1023.24,46.9,347.2
"2020-03-07 19:17:45+00",21.5,26.5,,44.7,-34,946,44,1023.31,47.2,339.9
"2020-03-07 19:22:45+00",18.2,21.2,,45.1,-263,761,39,1023.28,47.5,329.6
"2020-03-07 19:27:45+00",25.7,28.7,,44.8,-198,1126,30,1023.3,47.2,323.8
"2020-03-07 19:32:45+00",17.3,21.3,,44.9,-82,758,19,1023.46,47.2,314.7
"2020-03-07 19:37:45+00",19.7,24.7,,45.1,-218,840,38,1023.43,47.3,306.5
"2020-03-07 19:42:45+00",22.9,26.9,,45.2,-139,982,19,1023.66,47.7,298.6
"2020-03-07 19:47:45+00",22.8,25.8,,45.1,-522,864,73,1023.56,47.5,293.9
"2020-03-07 19:52:45+00",19.5,25.5,,45.6,-317,796,49,1023.66,47.9,285.9
"2020-03-07 19:57:45+00",24.4,29.4,,45.2,1,1015,51,1023.8,47.9,279.8
"2020-03-07 20:02:45+00",15.8,19.8,,45.3,-6,684,28,1023.84,48.1,272.9
"2020-03-07 20:07:45+00",21.6,26.6,,45.2,-572,765,81,1023.83,47.9,262.2
"2020-03-07 20:12:45+00",20.3,22.3,,45,-502,740,50,1024.03,47.4,256.6
"2020-03-07 20:17:45+00",25.7,28.7,,45.2,-490,1025,66,1024.05,47.3,250
"2020-03-07 20:22:45+00",20.0,22.0,,45.6,-459,742,71,1024.05,47.4,243.8
"2020-03-07 20:27:45+00",20.6,23.6,,45.6,-143,880,14,1024.09,47.7,234.1
"2020-03-07 20:32:45+00",23.6,26.6,,45.8,-511,911,57,1024.15,47.9,226.2
"2020-03-07 20:37:45+00",19.7,22.7,,45.9,-340,801,60,1024.16,47.7,217.4
"2020-03-07 20:42:45+00",22.6,26.6,,45.8,-237,967,32,1024.24,47.9,210.9
"2020-03-07 20:47:45+00",21.3,23.3,,45.7,-299,895,38,1024.34,47.7,201.9
"2020-03-07 20:52:45+00",18.2,20.2,,45.8,-224,768,22,1024.36,47.9,191
"2020-03-07 20:57:45+00",25.0,31.0,,45.6,-369,1019,56,1024.36,47.7,185.7
"2020-03-07 21:02:45+00",22.0,24.0,,45.6,-422,879,46,1024.35,47.5,174.1
"2020-03-07 21:07:45+00",22.0,25.0,,45.7,-517,820,69,1024.39,47.3,164.3
"2020-03-07 21:12:45+00",20.4,23.4,,45.8,-523,740,73,1024.42,47.3,153.2
"2020-03-07 21:17:45+00",20.8,24.8,,45.9,-402,816,61,1024.4,47.1,144.3
"2020-03-07 21:22:45+00",15.4,19.4,,46,-274,612,75,1024.5,47.3,131.7
"2020-03-07 21:27:45+00",15.5,17.5,,46,-153,674,29,1024.65,47.3,121.4
"2020-03-07 21:32:45+00",18.8,21.8,,46,-431,706,51,1024.65,47.4,112.5
"2020-03-07 21:37:45+00",20.0,24.0,,46,-215,821,65,1024.75,47.2,99.8
"2020-03-07 21:42:45+00",20.9,23.9,,45.9,-447,815,58,1024.76,47.1,89.3
"2020-03-07 21:47:45+00",23.8,27.8,,45.9,116,380,396,1024.82,46.9,77.2
"2020-03-07 21:52:45+00",21.5,25.5,,45.8,-275,849,55,1024.93,46.8,66.8
"2020-03-07 21:57:45+00",18.4,20.4,,45.8,-258,770,40,1024.99,46.7,56.3
"2020-03-07 22:02:45+00",16.3,17.3,,45.8,-319,637,21,1025.02,46.6,44.2
"2020-03-07 22:07:45+00",13.9,14.9,,45.7,-243,561,34,1025.17,46.5,34.3
"2020-03-07 22:12:45+00",16.0,19.0,,45.7,-69,692,30,1025.23,46.5,24.9
"2020-03-07 22:17:45+00",18.9,21.9,,45.5,-109,740,67,1025.3,46.6,15.6
"2020-03-07 22:22:45+00",18.9,20.9,,45.5,-283,802,31,1025.41,46.3,6.7
"2020-03-07 22:27:45+00",16.3,19.3,,45.4,-474,775,-69,1025.51,46,0.6
"2020-03-07 22:32:45+00",19.0,20.0,,45.3,-1208,1981,-724,1025.47,45.6,0
"2020-03-07 22:37:45+00",17.8,20.8,,45.2,-1138,1851,-649,1025.69,45.2,0
"2020-03-07 22:42:45+00",18.4,21.4,,45.1,-1235,1970,-676,1025.84,44.9,0
"2020-03-07 22:47:45+00",16.7,19.7,,44.8,-1209,2101,-806,1025.92,44.6,0
"2020-03-07 22:52:45+00",16.1,18.1,,44.7,-1077,1740,-617,1025.94,44.3,0
"2020-03-07 22:57:45+00",14.0,16.0,,44.5,-487,717,-79,1026.13,44,0
"2020-03-07 23:02:45+00",15.0,17.0,,44.5,-565,688,-64,1026.15,43.9,0
"2020-03-07 23:07:45+00",15.6,17.6,,44.3,-733,1080,-258,1026.18,43.7,0
"2020-03-07 23:12:45+00",16.1,18.1,,44.3,-904,1362,-438,1026.32,43.7,0
"2020-03-07 23:17:45+00",18.4,20.4,,44.3,-1446,2205,-832,1026.4,43.6,0
"2020-03-07 23:22:45+00",16.6,18.6,,44.1,-872,1167,-348,1026.43,43.5,0
"2020-03-07 23:27:45+00",16.6,18.6,,43.8,-833,1062,-291,1026.52,43.3,0
"2020-03-07 23:32:45+00",15.4,16.4,,43.6,-685,853,-167,1026.54,43.2,0
"2020-03-07 23:37:45+00",15.5,16.5,,43.5,-888,1228,-407,1026.49,43,0
"2020-03-07 23:42:45+00",15.5,17.5,,43.3,-803,1141,-341,1026.61,42.9,0
"2020-03-07 23:47:45+00",15.4,17.4,,43.3,-742,1082,-282,1026.7,42.8,0
"2020-03-07 23:52:45+00",14.3,17.3,,43,-635,893,-205,1026.74,42.6,0
"2020-03-07 23:57:45+00",14.3,15.3,,42.6,-570,830,-158,1026.91,42.3,0
